Time,TemperatureF,DewpointF,PressureIn,WindDirection,WindDirectionDegrees,WindSpeedMPH,WindSpeedGustMPH,Humidity,HourlyPrecipIn,Conditions,Clouds,dailyrainin,SoftwareType,DateUTC
2013-04-04 00:06:00,30.8,17.0,30.35,WSW,251,0.0,1.0,58,0.00,,,0.00,weatherlink.com 1.10,2013-04-04 04:06:00,
2013-04-04 00:22:00,29.7,17.0,30.35,WSW,251,0.0,0.0,60,0.00,,,0.00,weatherlink.com 1.10,2013-04-04 04:22:00,
2013-04-04 00:51:00,29.6,19.0,30.37,West,275,0.0,1.0,64,0.00,,,0.00,weatherlink.com 1.10,2013-04-04 04:51:00,
2013-04-04 01:06:00,29.1,17.0,30.36,NW,318,0.0,3.0,60,0.00,,,0.00,weatherlink.com 1.10,2013-04-04 05:06:00,
2013-04-04 01:22:00,28.9,18.0,30.37,South,170,4.0,4.0,63,0.00,,,0.00,weatherlink.com 1.10,2013-04-04 05:22:00,
2013-04-04 01:36:00,28.4,16.0,30.38,West,265,1.0,3.0,60,0.00,,,0.00,weatherlink.com 1.10,2013-04-04 05:36:00,
2013-04-04 01:51:00,28.9,15.0,30.38,NW,319,1.0,4.0,57,0.00,,,0.00,weatherlink.com 1.10,2013-04-04 05:51:00,
2013-04-04 02:06:00,29.2,16.0,30.39,WSW,253,0.0,4.0,59,0.00,,,0.00,weatherlink.com 1.10,2013-04-04 06:06:00,
2013-04-04 02:22:00,28.9,15.0,30.39,West,276,2.0,3.0,56,0.00,,,0.00,weatherlink.com 1.10,2013-04-04 06:22:00,
2013-04-04 02:36:00,28.5,15.0,30.38,West,263,2.0,2.0,57,0.00,,,0.00,weatherlink.com 1.10,2013-04-04 06:36:00,
2013-04-04 03:06:00,27.8,15.0,30.37,NNW,346,2.0,4.0,60,0.00,,,0.00,weatherlink.com 1.10,2013-04-04 07:06:00,
2013-04-04 03:22:00,27.8,16.0,30.37,WSW,256,0.0,3.0,62,0.00,,,0.00,weatherlink.com 1.10,2013-04-04 07:22:00,
2013-04-04 03:37:00,28.4,15.0,30.37,NNW,329,1.0,4.0,57,0.00,,,0.00,weatherlink.com 1.10,2013-04-04 07:37:00,
2013-04-04 03:52:00,28.2,15.0,30.37,WSW,246,3.0,3.0,58,0.00,,,0.00,weatherlink.com 1.10,2013-04-04 07:52:00,
2013-04-04 04:07:00,27.8,15.0,30.37,West,279,0.0,3.0,60,0.00,,,0.00,weatherlink.com 1.10,2013-04-04 08:07:00,
2013-04-04 04:22:00,28.0,15.0,30.37,NW,306,1.0,3.0,58,0.00,,,0.00,weatherlink.com 1.10,2013-04-04 08:22:00,
2013-04-04 04:37:00,27.9,15.0,30.38,North,355,0.0,4.0,59,0.00,,,0.00,weatherlink.com 1.10,2013-04-04 08:37:00,
2013-04-04 04:52:00,27.3,16.0,30.38,NW,321,1.0,3.0,62,0.00,,,0.00,weatherlink.com 1.10,2013-04-04 08:52:00,
2013-04-04 05:07:00,27.2,16.0,30.39,WSW,254,0.0,1.0,62,0.00,,,0.00,weatherlink.com 1.10,2013-04-04 09:07:00,
2013-04-04 05:22:00,26.6,16.0,30.40,SSW,211,3.0,4.0,65,0.00,,,0.00,weatherlink.com 1.10,2013-04-04 09:22:00,
2013-04-04 05:37:00,26.3,16.0,30.40,WSW,256,0.0,2.0,65,0.00,,,0.00,weatherlink.com 1.10,2013-04-04 09:37:00,
2013-04-04 05:52:00,26.2,16.0,30.41,WSW,251,0.0,3.0,65,0.00,,,0.00,weatherlink.com 1.10,2013-04-04 09:52:00,
2013-04-04 06:07:00,26.5,18.0,30.41,SW,226,0.0,2.0,69,0.00,,,0.00,weatherlink.com 1.10,2013-04-04 10:07:00,
2013-04-04 06:22:00,25.4,16.0,30.41,NNW,331,1.0,2.0,68,0.00,,,0.00,weatherlink.com 1.10,2013-04-04 10:22:00,
2013-04-04 06:37:00,24.9,17.0,30.42,NNE,32,0.0,0.0,71,0.00,,,0.00,weatherlink.com 1.10,2013-04-04 10:37:00,
2013-04-04 06:52:00,24.0,17.0,30.42,South,190,4.0,4.0,73,0.00,,,0.00,weatherlink.com 1.10,2013-04-04 10:52:00,
2013-04-04 07:07:00,24.5,17.0,30.43,SSW,196,0.0,2.0,72,0.00,,,0.00,weatherlink.com 1.10,2013-04-04 11:07:00,
2013-04-04 07:22:00,25.4,18.0,30.44,SSW,197,0.0,0.0,73,0.00,,,0.00,weatherlink.com 1.10,2013-04-04 11:22:00,
2013-04-04 07:37:00,26.8,19.0,30.44,SSW,198,0.0,0.0,73,0.00,,,0.00,weatherlink.com 1.10,2013-04-04 11:37:00,
2013-04-04 07:52:00,28.3,19.0,30.43,SSW,198,0.0,0.0,68,0.00,,,0.00,weatherlink.com 1.10,2013-04-04 11:52:00,
2013-04-04 08:07:00,29.9,18.0,30.43,SW,221,1.0,3.0,62,0.00,,,0.00,weatherlink.com 1.10,2013-04-04 12:07:00,
2013-04-04 08:22:00,30.6,18.0,30.43,West,281,3.0,6.0,59,0.00,,,0.00,weatherlink.com 1.10,2013-04-04 12:22:00,
2013-04-04 08:37:00,31.3,18.0,30.42,West,278,1.0,3.0,58,0.00,,,0.00,weatherlink.com 1.10,2013-04-04 12:37:00,
2013-04-04 08:52:00,32.1,17.0,30.42,NW,311,4.0,5.0,55,0.00,,,0.00,weatherlink.com 1.10,2013-04-04 12:52:00,
2013-04-04 09:07:00,33.7,18.0,30.42,NNW,335,3.0,6.0,54,0.00,,,0.00,weatherlink.com 1.10,2013-04-04 13:07:00,
2013-04-04 09:22:00,34.4,18.0,30.41,North,5,8.0,10.0,51,0.00,,,0.00,weatherlink.com 1.10,2013-04-04 13:22:00,
2013-04-04 09:37:00,34.7,18.0,30.40,NNW,348,5.0,7.0,51,0.00,,,0.00,weatherlink.com 1.10,2013-04-04 13:37:00,
2013-04-04 09:53:00,34.8,18.0,30.40,NNW,339,4.0,6.0,50,0.00,,,0.00,weatherlink.com 1.10,2013-04-04 13:53:00,
2013-04-04 10:07:00,36.2,17.0,30.40,NNE,29,0.0,9.0,46,0.00,,,0.00,weatherlink.com 1.10,2013-04-04 14:07:00,
2013-04-04 10:22:00,37.2,18.0,30.39,ENE,77,4.0,6.0,46,0.00,,,0.00,weatherlink.com 1.10,2013-04-04 14:22:00,
2013-04-04 10:37:00,37.8,18.0,30.38,East,83,2.0,8.0,44,0.00,,,0.00,weatherlink.com 1.10,2013-04-04 14:37:00,
2013-04-04 10:53:00,38.4,18.0,30.38,ENE,63,3.0,8.0,43,0.00,,,0.00,weatherlink.com 1.10,2013-04-04 14:53:00,
2013-04-04 11:08:00,40.4,20.0,30.37,SSE,167,4.0,6.0,45,0.00,,,0.00,weatherlink.com 1.10,2013-04-04 15:08:00,
2013-04-04 11:23:00,39.8,20.0,30.38,SE,146,3.0,10.0,45,0.00,,,0.00,weatherlink.com 1.10,2013-04-04 15:23:00,
2013-04-04 11:38:00,41.7,22.0,30.37,WSW,255,7.0,7.0,45,0.00,,,0.00,weatherlink.com 1.10,2013-04-04 15:38:00,
2013-04-04 11:53:00,41.4,21.0,30.36,NNW,336,0.0,7.0,44,0.00,,,0.00,weatherlink.com 1.10,2013-04-04 15:53:00,
2013-04-04 12:07:00,42.8,22.0,30.35,SSW,205,5.0,9.0,44,0.00,,,0.00,weatherlink.com 1.10,2013-04-04 16:07:00,
2013-04-04 12:22:00,43.0,21.0,30.34,South,183,6.0,10.0,41,0.00,,,0.00,weatherlink.com 1.10,2013-04-04 16:22:00,
2013-04-04 12:37:00,44.3,22.0,30.34,SW,223,4.0,9.0,42,0.00,,,0.00,weatherlink.com 1.10,2013-04-04 16:37:00,
2013-04-04 12:53:00,44.5,21.0,30.33,WSW,250,8.0,12.0,39,0.00,,,0.00,weatherlink.com 1.10,2013-04-04 16:53:00,
2013-04-04 13:07:00,44.4,21.0,30.32,SW,234,7.0,10.0,40,0.00,,,0.00,weatherlink.com 1.10,2013-04-04 17:07:00,
2013-04-04 13:22:00,45.2,21.0,30.30,SSW,200,5.0,11.0,38,0.00,,,0.00,weatherlink.com 1.10,2013-04-04 17:22:00,
2013-04-04 13:37:00,45.0,22.0,30.30,SSW,204,6.0,9.0,41,0.00,,,0.00,weatherlink.com 1.10,2013-04-04 17:37:00,
2013-04-04 13:53:00,45.5,21.0,30.29,SW,225,8.0,12.0,38,0.00,,,0.00,weatherlink.com 1.10,2013-04-04 17:53:00,
2013-04-04 14:07:00,47.1,22.0,30.27,South,182,8.0,11.0,37,0.00,,,0.00,weatherlink.com 1.10,2013-04-04 18:07:00,
2013-04-04 14:22:00,47.0,21.0,30.27,SSW,196,7.0,11.0,36,0.00,,,0.00,weatherlink.com 1.10,2013-04-04 18:22:00,
2013-04-04 14:37:00,47.9,19.0,30.26,South,178,6.0,13.0,32,0.00,,,0.00,weatherlink.com 1.10,2013-04-04 18:37:00,
2013-04-04 15:08:00,48.2,22.0,30.24,South,170,7.0,15.0,35,0.00,,,0.00,weatherlink.com 1.10,2013-04-04 19:08:00,
2013-04-04 15:23:00,48.3,21.0,30.23,South,184,8.0,12.0,34,0.00,,,0.00,weatherlink.com 1.10,2013-04-04 19:23:00,
2013-04-04 16:01:00,48.3,21.0,30.22,SSW,194,8.0,14.0,34,0.00,,,0.00,weatherlink.com 1.10,2013-04-04 20:01:00,
2013-04-04 16:27:00,48.1,23.0,30.21,SSW,198,7.0,15.0,38,0.00,,,0.00,weatherlink.com 1.10,2013-04-04 20:27:00,
2013-04-04 16:38:00,47.2,21.0,30.21,South,191,14.0,15.0,35,0.00,,,0.00,weatherlink.com 1.10,2013-04-04 20:38:00,
2013-04-04 16:53:00,46.5,20.0,30.21,South,182,8.0,14.0,35,0.00,,,0.00,weatherlink.com 1.10,2013-04-04 20:53:00,
2013-04-04 17:08:00,46.1,18.0,30.21,SSW,193,12.0,14.0,33,0.00,,,0.00,weatherlink.com 1.10,2013-04-04 21:08:00,
2013-04-04 17:27:00,45.5,16.0,30.21,South,182,10.0,15.0,31,0.00,,,0.00,weatherlink.com 1.10,2013-04-04 21:27:00,
2013-04-04 17:38:00,45.2,17.0,30.21,South,188,6.0,13.0,32,0.00,,,0.00,weatherlink.com 1.10,2013-04-04 21:38:00,
2013-04-04 17:53:00,44.8,16.0,30.22,SSW,209,8.0,14.0,32,0.00,,,0.00,weatherlink.com 1.10,2013-04-04 21:53:00,
2013-04-04 18:08:00,44.3,16.0,30.21,SSW,207,12.0,17.0,32,0.00,,,0.00,weatherlink.com 1.10,2013-04-04 22:08:00,
2013-04-04 18:27:00,44.0,15.0,30.21,SSW,200,10.0,16.0,31,0.00,,,0.00,weatherlink.com 1.10,2013-04-04 22:27:00,
2013-04-04 18:38:00,43.5,16.0,30.20,SSW,201,7.0,13.0,33,0.00,,,0.00,weatherlink.com 1.10,2013-04-04 22:38:00,
2013-04-04 18:53:00,43.1,18.0,30.19,South,169,4.0,12.0,36,0.00,,,0.00,weatherlink.com 1.10,2013-04-04 22:53:00,
2013-04-04 19:08:00,42.7,19.0,30.18,SSE,159,1.0,7.0,39,0.00,,,0.00,weatherlink.com 1.10,2013-04-04 23:08:00,
2013-04-04 19:27:00,42.3,21.0,30.18,South,180,4.0,7.0,42,0.00,,,0.00,weatherlink.com 1.10,2013-04-04 23:27:00,
2013-04-04 19:38:00,42.0,20.0,30.17,SSW,192,7.0,12.0,41,0.00,,,0.00,weatherlink.com 1.10,2013-04-04 23:38:00,
2013-04-04 19:53:00,41.9,21.0,30.16,South,174,7.0,13.0,43,0.00,,,0.00,weatherlink.com 1.10,2013-04-04 23:53:00,
2013-04-04 20:08:00,41.5,21.0,30.15,SSW,200,7.0,11.0,45,0.00,,,0.00,weatherlink.com 1.10,2013-04-05 00:08:00,
2013-04-04 20:27:00,41.3,22.0,30.16,SSW,201,9.0,13.0,46,0.00,,,0.00,weatherlink.com 1.10,2013-04-05 00:27:00,
2013-04-04 20:39:00,41.2,22.0,30.16,SSW,202,7.0,10.0,46,0.00,,,0.00,weatherlink.com 1.10,2013-04-05 00:39:00,
2013-04-04 20:53:00,41.1,22.0,30.16,South,180,4.0,10.0,46,0.00,,,0.00,weatherlink.com 1.10,2013-04-05 00:53:00,
2013-04-04 21:28:00,41.0,22.0,30.15,SSW,192,2.0,7.0,47,0.00,,,0.00,weatherlink.com 1.10,2013-04-05 01:28:00,
2013-04-04 21:39:00,40.9,22.0,30.15,SSW,197,4.0,8.0,48,0.00,,,0.00,weatherlink.com 1.10,2013-04-05 01:39:00,
2013-04-04 21:54:00,40.9,23.0,30.15,South,180,6.0,7.0,49,0.00,,,0.00,weatherlink.com 1.10,2013-04-05 01:54:00,
2013-04-04 22:09:00,40.7,24.0,30.14,South,177,1.0,6.0,51,0.00,,,0.00,weatherlink.com 1.10,2013-04-05 02:09:00,
2013-04-04 22:28:00,40.7,24.0,30.13,SE,143,3.0,6.0,52,0.00,,,0.00,weatherlink.com 1.10,2013-04-05 02:28:00,
2013-04-04 22:39:00,40.7,24.0,30.12,South,179,3.0,6.0,51,0.00,,,0.00,weatherlink.com 1.10,2013-04-05 02:39:00,
2013-04-04 22:54:00,40.6,24.0,30.12,South,190,0.0,7.0,52,0.00,,,0.00,weatherlink.com 1.10,2013-04-05 02:54:00,
2013-04-04 23:09:00,40.5,24.0,30.11,South,180,0.0,5.0,53,0.00,,,0.00,weatherlink.com 1.10,2013-04-05 03:09:00,
2013-04-04 23:28:00,40.4,26.0,30.11,South,171,2.0,7.0,56,0.00,,,0.00,weatherlink.com 1.10,2013-04-05 03:28:00,
2013-04-04 23:39:00,40.5,27.0,30.10,South,184,5.0,9.0,58,0.00,,,0.00,weatherlink.com 1.10,2013-04-05 03:39:00,
2013-04-04 23:54:00,40.4,27.0,30.09,South,188,5.0,8.0,59,0.00,,,0.00,weatherlink.com 1.10,2013-04-05 03:54:00,